CW8262 Weather Reports


Display with metric or nautical units.
time (UTC)temp
F
wind
direction
speed
MPH
gust
MPH
rain 1hr
in
rain 24hr
in
rain mn
in
humidity
%
barometer
mb
20180223201702 58 225 0.0 0.0 0.00 0.00 0.00 83 1014.0
20180223201202 57 102 0.0 0.0 0.00 0.00 0.00 83 1014.0
20180223200702 57 176 0.0 0.0 0.00 0.00 0.00 82 1014.0
20180223200202 57 200 0.0 1.0 0.00 0.00 0.00 82 1014.0
20180223195702 57 172 0.0 0.0 0.00 0.00 0.00 82 1013.9
20180223195202 57 162 0.0 3.0 0.00 0.00 0.00 82 1013.9
20180223194702 57 165 0.0 0.0 0.00 0.00 0.00 81 1013.9
20180223193702 57 296 0.0 0.0 0.00 0.00 0.00 79 1013.9
20180223193202 56 311 0.0 0.0 0.00 0.00 0.00 78 1013.9
20180223192702 56 288 0.0 0.0 0.00 0.00 0.00 76 1013.9
20180223192202 56 186 0.0 0.0 0.00 0.00 0.00 74 1013.9
20180223190702 56 167 0.0 0.0 0.00 0.00 0.00 75 1013.8
20180223190203 56 180 0.0 0.0 0.00 0.00 0.00 73 1013.8
20180223185703 55 202 0.0 0.0 0.00 0.00 0.00 74 1013.3
20180223185203 55 202 0.0 0.0 0.00 0.00 0.00 74 1013.3
20180223184702 55 290 0.0 0.0 0.00 0.00 0.00 74 1013.3
20180223184203 55 202 0.0 0.0 0.00 0.00 0.00 75 1013.3
20180223183202 55 135 0.0 0.0 0.00 0.00 0.00 76 1013.1
20180223182703 55 221 0.0 0.0 0.00 0.00 0.00 76 1013.1
20180223182203 55 135 0.0 0.0 0.00 0.00 0.00 77 1013.1
20180223181702 55 137 0.0 0.0 0.00 0.00 0.00 77 1013.0
20180223180703 54 156 0.0 0.0 0.00 0.00 0.00 78 1013.0
20180223180202 54 158 0.0 0.0 0.00 0.00 0.00 79 1013.0
20180223175702 54 158 0.0 0.0 0.00 0.00 0.00 78 1012.8
20180223175203 54 112 0.0 0.0 0.00 0.00 0.00 78 1012.8
20180223174202 54 180 0.0 0.0 0.00 0.00 0.00 77 1012.8
20180223173703 54 180 0.0 0.0 0.00 0.00 0.00 76 1012.4
20180223172702 54 156 0.0 0.0 0.00 0.01 0.00 75 1012.4
20180223172202 53 158 0.0 0.0 0.00 0.01 0.00 75 1012.4
20180223171702 53 158 0.0 0.0 0.00 0.01 0.00 75 1012.2
20180223171202 53 180 0.0 0.0 0.00 0.01 0.00 74 1012.2
20180223170702 53 178 0.0 0.0 0.00 0.01 0.00 74 1012.2
20180223170202 53 112 0.0 0.0 0.00 0.01 0.00 75 1012.2
20180223165703 53 136 0.0 0.0 0.00 0.01 0.00 76 1012.2
20180223165202 52 68 0.0 0.0 0.00 0.01 0.00 76 1012.2
20180223164702 52 136 0.0 0.0 0.00 0.01 0.00 76 1012.2
20180223164202 52 158 0.0 0.0 0.00 0.01 0.00 77 1012.2
20180223163703 52 158 0.0 0.0 0.00 0.01 0.00 77 1012.1
20180223163203 52 158 0.0 0.0 0.00 0.01 0.00 76 1012.1
20180223161703 52 135 0.0 0.0 0.00 0.01 0.00 76 1011.9
20180223161202 52 158 0.0 0.0 0.00 0.01 0.00 76 1011.9
20180223155702 51 135 0.0 0.0 0.00 0.01 0.00 79 1012.2
20180223154702 51 158 0.0 0.0 0.00 0.01 0.00 79 1012.2
20180223154203 51 179 0.0 0.0 0.00 0.01 0.00 80 1012.2
20180223153703 51 180 0.0 0.0 0.00 0.01 0.00 79 1012.1
20180223153202 52 158 0.0 0.0 0.00 0.01 0.00 78 1012.1
20180223152202 52 134 0.0 0.0 0.00 0.01 0.00 77 1012.1
20180223151702 52 112 0.0 0.0 0.00 0.01 0.00 77 1012.2
20180223150702 52 112 0.0 1.0 0.00 0.01 0.00 77 1012.2
20180223150202 52 112 0.0 1.0 0.00 0.01 0.00 77 1012.2
20180223145703 52 112 0.0 0.0 0.00 0.01 0.00 77 1012.3
20180223144702 52 135 0.0 0.0 0.00 0.01 0.00 77 1012.3
20180223144203 52 112 0.0 0.0 0.00 0.01 0.00 78 1012.3
20180223143702 52 112 0.0 0.0 0.00 0.01 0.00 78 1012.4
20180223143203 52 88 0.0 0.0 0.00 0.01 0.00 78 1012.4
20180223142703 52 90 0.0 0.0 0.00 0.01 0.00 78 1012.4
20180223142203 52 112 0.0 0.0 0.00 0.01 0.00 78 1012.4
20180223141702 53 68 0.0 0.0 0.00 0.01 0.00 78 1012.7
20180223141202 53 87 0.0 0.0 0.00 0.01 0.00 78 1012.7
20180223140202 53 107 0.0 0.0 0.00 0.01 0.00 79 1012.7
20180223135202 53 112 0.0 0.0 0.00 0.01 0.00 78 1012.6
20180223134202 53 112 0.0 0.0 0.00 0.01 0.00 79 1012.6
20180223133203 53 109 0.0 0.0 0.00 0.01 0.00 78 1012.9
20180223132203 53 68 0.0 0.0 0.00 0.01 0.00 79 1012.9
20180223131202 53 112 0.0 0.0 0.00 0.01 0.00 79 1013.1
20180223130702 53 112 0.0 0.0 0.00 0.01 0.00 80 1013.1
20180223130203 53 108 0.0 0.0 0.00 0.01 0.00 80 1013.1
20180223125702 53 112 0.0 0.0 0.00 0.01 0.00 80 1013.6
20180223125202 53 112 0.0 0.0 0.00 0.01 0.00 80 1013.6
20180223124702 54 112 0.0 0.0 0.00 0.01 0.00 81 1013.6
20180223123703 54 68 0.0 0.0 0.00 0.01 0.00 81 1013.4
20180223122202 54 68 0.0 0.0 0.00 0.01 0.00 82 1013.4
20180223120703 54 68 0.0 0.0 0.00 0.01 0.00 82 1013.3
20180223115703 55 90 0.0 0.0 0.00 0.01 0.00 82 1013.4
20180223114702 55 68 0.0 0.0 0.00 0.01 0.00 83 1013.4
20180223114202 55 89 0.0 0.0 0.00 0.01 0.00 83 1013.4
20180223113702 55 135 0.0 0.0 0.00 0.01 0.00 83 1013.6
20180223113203 55 112 0.0 0.0 0.00 0.01 0.00 83 1013.6
20180223112702 55 112 0.0 0.0 0.00 0.01 0.00 83 1013.6
20180223112203 55 110 0.0 0.0 0.00 0.01 0.00 83 1013.6
20180223111703 55 112 0.0 0.0 0.00 0.01 0.00 83 1013.6
20180223111203 56 68 0.0 0.0 0.00 0.01 0.00 84 1013.6
20180223110704 56 90 0.0 0.0 0.00 0.01 0.00 83 1013.6
20180223110202 56 112 0.0 0.0 0.00 0.01 0.00 83 1013.6
20180223105203 57 112 0.0 0.0 0.00 0.01 0.01 83 1013.8
20180223104702 57 112 0.0 0.0 0.00 0.01 0.01 83 1013.8
20180223104203 57 68 0.0 0.0 0.00 0.01 0.01 83 1013.8
20180223103702 57 68 0.0 0.0 0.00 0.01 0.01 83 1013.8
20180223103203 58 104 0.0 0.0 0.00 0.01 0.01 83 1013.8
20180223102702 58 68 0.0 0.0 0.00 0.01 0.01 83 1013.8
20180223102203 58 126 0.0 0.0 0.00 0.01 0.01 82 1013.8
20180223101702 58 180 0.0 0.0 0.00 0.01 0.01 82 1013.8
20180223101202 59 68 0.0 0.0 0.00 0.01 0.01 82 1013.8
20180223095202 58 354 0.0 2.0 0.00 0.01 0.01 82 1013.6
20180223094202 58 112 0.0 2.0 0.00 0.01 0.01 82 1013.6
20180223093703 58 45 0.0 2.0 0.00 0.01 0.01 82 1013.8
20180223093203 58 63 0.0 0.0 0.00 0.01 0.01 82 1013.8
20180223092702 58 45 0.0 0.0 0.00 0.01 0.01 81 1013.8
20180223091702 59 22 0.0 1.0 0.00 0.01 0.01 81 1013.5
20180223090703 59 45 0.0 0.0 0.00 0.03 0.01 80 1013.5
20180223090202 59 80 0.0 0.0 0.00 0.03 0.01 80 1013.5
20180223085702 59 68 0.0 0.0 0.00 0.03 0.01 79 1013.5
20180223085203 60 68 0.0 0.0 0.00 0.03 0.01 79 1013.5
20180223084202 60 81 0.0 0.0 0.00 0.03 0.01 78 1013.5
20180223083202 61 102 0.0 0.0 0.00 0.03 0.01 76 1013.1
20180223082702 61 68 0.0 0.0 0.00 0.03 0.01 76 1013.1
20180223082203 61 73 0.0 0.0 0.00 0.03 0.01 76 1013.1
20180223081703 61 68 0.0 0.0 0.00 0.03 0.01 75 1013.2
20180223081203 61 68 0.0 0.0 0.00 0.03 0.01 75 1013.2
20180223080202 61 5 0.0 0.0 0.00 0.03 0.01 74 1013.2
20180223075702 62 22 1.0 0.0 0.00 0.03 0.01 73 1013.2
20180223075202 62 4 2.0 2.0 0.00 0.03 0.01 72 1013.2
20180223074703 62 338 2.0 3.0 0.00 0.03 0.01 72 1013.2
20180223074203 63 315 2.0 3.0 0.00 0.03 0.01 70 1013.2
20180223073702 64 338 2.0 3.0 0.00 0.03 0.01 69 1014.1
20180223073203 64 353 2.0 3.0 0.00 0.03 0.01 67 1014.1
20180223070702 66 315 0.0 1.0 0.00 0.03 0.01 63 1013.6
20180223070204 66 343 1.0 2.0 0.00 0.03 0.01 63 1013.6
20180223065203 67 331 2.0 3.0 0.00 0.03 0.01 62 1013.3
20180223064203 68 315 2.0 2.0 0.00 0.03 0.01 61 1013.3
20180223062702 69 292 3.0 5.0 0.00 0.03 0.01 61 1013.4
20180223062203 69 307 3.0 5.0 0.00 0.03 0.01 60 1013.4
20180223061203 69 292 4.0 5.0 0.00 0.03 0.01 61 1013.4
20180223060703 70 270 5.0 6.0 0.00 0.03 0.01 60 1013.4
20180223060202 70 323 5.0 6.0 0.00 0.03 0.01 60 1013.4
20180223055702 70 248 5.0 6.0 0.00 0.03 0.01 58 1013.3
20180223055202 70 315 5.0 6.0 0.00 0.03 0.01 60 1013.3
20180223054702 71 331 5.0 6.0 0.00 0.03 0.01 59 1013.3
20180223053702 71 295 5.0 6.0 0.00 0.03 0.01 59 1013.1
20180223053203 71 270 5.0 6.0 0.00 0.03 0.01 58 1013.1
20180223052203 71 270 6.0 8.0 0.00 0.03 0.01 55 1013.1
20180223051703 72 317 5.0 8.0 0.00 0.03 0.01 55 1012.9
20180223051203 72 315 5.0 7.0 0.00 0.03 0.01 56 1012.9
20180223050702 72 312 5.0 8.0 0.00 0.03 0.01 55 1012.9
20180223050203 72 315 6.0 9.0 0.00 0.03 0.01 55 1012.9
20180223045703 73 309 6.0 9.0 0.00 0.03 0.01 54 1012.5
20180223044703 73 315 3.0 7.0 0.00 0.03 0.01 57 1012.5
20180223044202 74 338 5.0 6.0 0.00 0.03 0.01 57 1012.5
20180223043703 74 315 6.0 9.0 0.00 0.03 0.01 59 1012.5
20180223043202 74 292 6.0 9.0 0.00 0.03 0.01 57 1012.5
20180223042202 74 315 6.0 7.0 0.00 0.03 0.01 56 1012.5
20180223041703 74 292 5.0 6.0 0.00 0.03 0.01 60 1012.4
20180223040702 74 280 6.0 7.0 0.00 0.03 0.01 56 1012.4
20180223040203 74 315 6.0 9.0 0.00 0.03 0.01 60 1012.4
20180223035202 74 315 5.0 9.0 0.00 0.04 0.01 61 1011.8
20180223034702 74 296 5.0 8.0 0.00 0.04 0.01 59 1011.8
20180223033203 72 315 3.0 5.0 0.00 0.04 0.01 63 1011.9
20180223032702 72 270 4.0 6.0 0.00 0.04 0.01 62 1011.9
20180223031203 75 292 6.0 7.0 0.00 0.04 0.01 62 1011.7
20180223030703 75 292 6.0 7.0 0.00 0.04 0.01 62 1011.7
20180223025202 74 292 5.0 7.0 0.00 0.04 0.01 63 1011.4
20180223023703 74 335 2.0 6.0 0.00 0.04 0.01 62 1011.7
20180223022703 72 202 4.0 5.0 0.00 0.04 0.01 62 1011.7
20180223021702 72 298 2.0 6.0 0.00 0.04 0.01 67 1011.6
20180223021202 71 270 2.0 2.0 0.00 0.04 0.01 64 1011.6
20180223020703 71 338 2.0 7.0 0.00 0.04 0.01 63 1011.6
20180223020202 72 338 2.0 7.0 0.00 0.04 0.01 63 1011.6
20180223015704 72 338 3.0 6.0 0.00 0.04 0.01 63 1011.3
20180223015202 73 315 5.0 6.0 0.00 0.04 0.01 61 1011.3
20180223014203 74 270 2.0 7.0 0.00 0.04 0.01 64 1011.3
20180223013703 73 321 2.0 3.0 0.00 0.04 0.01 64 1011.4
20180223013202 73 315 3.0 6.0 0.00 0.04 0.01 62 1011.4
20180223012203 73 315 3.0 5.0 0.00 0.04 0.01 64 1011.4
20180223011203 73 315 3.0 3.0 0.00 0.04 0.01 60 1011.6
20180223010202 73 315 5.0 6.0 0.00 0.04 0.01 64 1011.6
20180223005703 73 314 5.0 8.0 0.00 0.04 0.01 66 1011.5
20180223005203 73 338 3.0 8.0 0.00 0.04 0.01 66 1011.5
20180223003703 73 248 3.0 7.0 0.00 0.04 0.01 63 1011.3
20180223003203 73 225 3.0 6.0 0.00 0.04 0.01 63 1011.3
20180223002703 72 291 3.0 7.0 0.00 0.04 0.01 65 1011.3
20180223002202 71 315 2.0 3.0 0.00 0.04 0.01 66 1011.3
20180223001203 69 292 2.0 5.0 0.00 0.04 0.01 63 1010.9
20180223000702 70 1 3.0 6.0 0.00 0.04 0.01 64 1010.9
20180222234203 68 158 2.0 1.0 0.00 0.04 0.01 66 1011.1
20180222233703 69 270 2.0 5.0 0.00 0.04 0.01 66 1011.1
20180222233202 69 248 2.0 5.0 0.00 0.04 0.01 67 1011.1
20180222232203 70 182 2.0 5.0 0.00 0.04 0.01 69 1011.1
20180222230703 68 315 3.0 7.0 0.00 0.04 0.01 68 1011.3
20180222230202 69 112 3.0 6.0 0.00 0.04 0.01 70 1011.3
20180222225703 69 248 3.0 7.0 0.00 0.04 0.01 72 1011.7
20180222224203 68 270 5.0 7.0 0.00 0.04 0.01 71 1011.7
20180222222703 68 315 3.0 5.0 0.00 0.04 0.01 73 1011.6
20180222222203 67 273 3.0 6.0 0.00 0.04 0.01 74 1011.6
20180222221702 67 315 2.0 6.0 0.00 0.04 0.01 76 1011.4
20180222221202 66 317 2.0 6.0 0.00 0.04 0.01 76 1011.4
20180222220703 65 315 2.0 3.0 0.00 0.04 0.01 77 1011.4
20180222220203 65 248 2.0 5.0 0.00 0.04 0.01 75 1011.4
20180222215203 66 292 2.0 5.0 0.00 0.04 0.01 75 1011.4
20180222213702 65 270 2.0 2.0 0.00 0.04 0.01 74 1011.1
20180222213203 66 307 2.0 3.0 0.00 0.04 0.01 73 1011.1
20180222212703 66 338 2.0 3.0 0.00 0.04 0.01 75 1011.1
20180222212203 66 289 1.0 5.0 0.00 0.04 0.01 74 1011.1
20180222211703 66 315 0.0 1.0 0.00 0.04 0.01 75 1010.6
20180222211203 66 168 0.0 0.0 0.00 0.05 0.01 72 1010.6
20180222210703 66 180 1.0 2.0 0.00 0.05 0.01 75 1010.6
20180222210203 65 306 0.0 2.0 0.00 0.08 0.01 76 1010.6
20180222205702 64 315 0.0 0.0 0.00 0.09 0.01 76 1010.6
20180222205203 64 162 1.0 1.0 0.00 0.10 0.01 75 1010.6
20180222204703 64 134 1.0 2.0 0.00 0.10 0.01 76 1010.6
20180222203203 61 69 0.0 1.0 0.00 0.10 0.01 79 1010.5
20180222202702 61 136 0.0 1.0 0.00 0.10 0.01 79 1010.5
20180222202202 61 112 1.0 1.0 0.00 0.10 0.01 79 1010.5